Time,TemperatureF,DewpointF,PressureIn,WindDirection,WindDirectionDegrees,WindSpeedMPH,WindSpeedGustMPH,Humidity,HourlyPrecipIn,Conditions,Clouds,dailyrainin,SoftwareType,DateUTC
2013-06-08 00:05:00,54.1,30.3,29.90,ENE,76,0.0,0.0,40,0.00,,,-99.99,Weather View 32 v60,2013-06-08 04:05:00,
2013-06-08 00:10:00,54.1,30.3,29.90,ENE,76,0.0,0.0,40,0.00,,,-99.99,Weather View 32 v60,2013-06-08 04:10:00,
2013-06-08 00:14:00,54.0,30.1,29.90,ENE,76,0.0,0.0,40,0.00,,,-99.99,Weather View 32 v60,2013-06-08 04:14:00,
2013-06-08 00:20:00,54.0,30.1,29.90,ENE,76,0.0,0.0,40,0.00,,,-99.99,Weather View 32 v60,2013-06-08 04:20:00,
2013-06-08 00:25:00,54.0,30.7,29.90,ENE,76,0.0,0.0,41,0.00,,,-99.99,Weather View 32 v60,2013-06-08 04:25:00,
2013-06-08 00:30:00,54.0,31.3,29.90,ENE,76,0.0,0.0,42,0.00,,,-99.99,Weather View 32 v60,2013-06-08 04:30:00,
2013-06-08 00:33:00,54.0,31.3,29.90,ENE,76,0.0,0.0,42,0.00,,,-99.99,Weather View 32 v60,2013-06-08 04:33:00,
2013-06-08 00:40:00,54.0,31.3,29.90,ENE,76,0.0,0.0,42,0.00,,,-99.99,Weather View 32 v60,2013-06-08 04:40:00,
2013-06-08 00:45:00,54.0,31.9,29.90,ENE,76,0.0,0.0,43,0.00,,,-99.99,Weather View 32 v60,2013-06-08 04:45:00,
2013-06-08 00:50:00,54.0,32.5,29.90,ENE,76,0.0,0.0,44,0.00,,,-99.99,Weather View 32 v60,2013-06-08 04:50:00,
2013-06-08 00:55:00,54.0,31.9,29.90,ENE,76,0.0,0.0,43,0.00,,,-99.99,Weather View 32 v60,2013-06-08 04:55:00,
2013-06-08 01:00:00,54.0,31.9,29.90,ENE,76,0.0,0.0,43,0.00,,,-99.99,Weather View 32 v60,2013-06-08 05:00:00,
2013-06-08 01:05:00,54.0,31.9,29.90,ENE,76,0.0,0.0,43,0.00,,,-99.99,Weather View 32 v60,2013-06-08 05:05:00,
2013-06-08 01:10:00,54.0,31.9,29.90,ENE,76,0.0,0.0,43,0.00,,,-99.99,Weather View 32 v60,2013-06-08 05:10:00,
2013-06-08 01:15:00,54.0,32.5,29.90,ENE,76,0.0,0.0,44,0.00,,,-99.99,Weather View 32 v60,2013-06-08 05:15:00,
2013-06-08 01:20:00,54.0,33.1,29.90,ENE,76,0.0,0.0,45,0.00,,,-99.99,Weather View 32 v60,2013-06-08 05:20:00,
2013-06-08 01:25:00,54.0,33.1,29.90,ENE,76,0.0,0.0,45,0.00,,,-99.99,Weather View 32 v60,2013-06-08 05:25:00,
2013-06-08 01:30:00,54.0,33.1,29.90,ENE,76,0.0,0.0,45,0.00,,,-99.99,Weather View 32 v60,2013-06-08 05:30:00,
2013-06-08 01:35:00,54.0,33.1,29.90,ENE,76,0.0,0.0,45,0.00,,,-99.99,Weather View 32 v60,2013-06-08 05:35:00,
2013-06-08 01:40:00,53.8,32.9,29.90,ENE,76,0.0,0.0,45,0.00,,,-99.99,Weather View 32 v60,2013-06-08 05:40:00,
2013-06-08 01:45:00,53.8,32.9,29.90,ENE,76,0.0,0.0,45,0.00,,,-99.99,Weather View 32 v60,2013-06-08 05:45:00,
2013-06-08 01:50:00,53.6,32.7,29.90,ENE,76,0.0,0.0,45,0.00,,,-99.99,Weather View 32 v60,2013-06-08 05:50:00,
2013-06-08 01:55:00,53.6,32.7,29.90,ENE,76,0.0,0.0,45,0.00,,,-99.99,Weather View 32 v60,2013-06-08 05:55:00,
2013-06-08 02:00:00,53.4,33.1,29.90,ENE,76,0.0,0.0,46,0.00,,,-99.99,Weather View 32 v60,2013-06-08 06:00:00,
2013-06-08 02:05:00,53.4,33.1,29.90,ENE,76,0.0,0.0,46,0.00,,,-99.99,Weather View 32 v60,2013-06-08 06:05:00,
2013-06-08 02:10:00,53.2,33.0,29.90,ENE,76,0.0,0.0,46,0.00,,,-99.99,Weather View 32 v60,2013-06-08 06:10:00,
2013-06-08 02:15:00,53.1,32.2,29.90,ENE,76,0.0,0.0,45,0.00,,,-99.99,Weather View 32 v60,2013-06-08 06:15:00,
2013-06-08 02:20:00,53.1,32.2,29.90,ENE,76,0.0,0.0,45,0.00,,,-99.99,Weather View 32 v60,2013-06-08 06:20:00,
2013-06-08 02:25:00,52.9,31.5,29.90,ENE,76,0.0,0.0,44,0.00,,,-99.99,Weather View 32 v60,2013-06-08 06:25:00,
2013-06-08 02:30:00,52.7,31.4,29.90,ENE,76,0.0,0.0,44,0.00,,,-99.99,Weather View 32 v60,2013-06-08 06:30:00,
2013-06-08 02:40:00,52.3,31.0,29.90,ENE,76,0.0,0.0,44,0.00,,,-99.99,Weather View 32 v60,2013-06-08 06:40:00,
2013-06-08 02:45:00,52.2,30.9,29.90,ENE,76,0.0,0.0,44,0.00,,,-99.99,Weather View 32 v60,2013-06-08 06:45:00,
2013-06-08 02:50:00,52.0,30.7,29.90,ENE,76,0.0,0.0,44,0.00,,,-99.99,Weather View 32 v60,2013-06-08 06:50:00,
2013-06-08 02:55:00,51.8,30.5,29.90,ENE,76,0.0,0.0,44,0.00,,,-99.99,Weather View 32 v60,2013-06-08 06:55:00,
2013-06-08 03:00:00,51.6,30.9,29.90,ENE,76,0.0,0.0,45,0.00,,,-99.99,Weather View 32 v60,2013-06-08 07:00:00,
2013-06-08 03:05:00,51.4,30.8,29.90,ENE,76,0.0,0.0,45,0.00,,,-99.99,Weather View 32 v60,2013-06-08 07:05:00,
2013-06-08 03:10:00,51.3,31.1,29.90,ENE,76,0.0,0.0,46,0.00,,,-99.99,Weather View 32 v60,2013-06-08 07:10:00,
2013-06-08 03:15:00,51.1,30.4,29.90,ENE,76,0.0,0.0,45,0.00,,,-99.99,Weather View 32 v60,2013-06-08 07:15:00,
2013-06-08 03:25:00,50.7,30.1,29.90,ENE,76,0.0,0.0,45,0.00,,,-99.99,Weather View 32 v60,2013-06-08 07:25:00,
2013-06-08 03:30:00,50.5,29.9,29.90,ENE,76,0.0,0.0,45,0.00,,,-99.99,Weather View 32 v60,2013-06-08 07:30:00,
2013-06-08 03:35:00,50.4,29.8,29.90,ENE,76,0.0,0.0,45,0.00,,,-99.99,Weather View 32 v60,2013-06-08 07:35:00,
2013-06-08 03:45:00,50.2,29.6,29.90,ENE,76,0.0,0.0,45,0.00,,,-99.99,Weather View 32 v60,2013-06-08 07:45:00,
2013-06-08 03:50:00,50.0,29.5,29.90,ENE,76,0.0,0.0,45,0.00,,,-99.99,Weather View 32 v60,2013-06-08 07:50:00,
2013-06-08 03:55:00,49.8,29.3,29.90,ENE,76,0.0,0.0,45,0.00,,,-99.99,Weather View 32 v60,2013-06-08 07:55:00,
2013-06-08 04:00:00,49.6,29.1,29.90,ENE,76,0.0,0.0,45,0.00,,,-99.99,Weather View 32 v60,2013-06-08 08:00:00,
2013-06-08 04:05:00,49.6,29.1,29.90,ENE,76,0.0,0.0,45,0.00,,,-99.99,Weather View 32 v60,2013-06-08 08:05:00,
2013-06-08 04:10:00,49.5,29.0,29.90,ENE,76,0.0,0.0,45,0.00,,,-99.99,Weather View 32 v60,2013-06-08 08:10:00,
2013-06-08 04:15:00,49.3,28.3,29.90,ENE,76,0.0,0.0,44,0.00,,,-99.99,Weather View 32 v60,2013-06-08 08:15:00,
2013-06-08 04:20:00,49.1,28.1,29.90,ENE,76,0.0,0.0,44,0.00,,,-99.99,Weather View 32 v60,2013-06-08 08:20:00,
2013-06-08 04:25:00,49.1,28.1,29.90,ENE,76,0.0,0.0,44,0.00,,,-99.99,Weather View 32 v60,2013-06-08 08:25:00,
2013-06-08 04:30:00,48.9,27.9,29.90,ENE,76,0.0,0.0,44,0.00,,,-99.99,Weather View 32 v60,2013-06-08 08:30:00,
2013-06-08 04:35:00,48.7,27.8,29.90,ENE,76,0.0,0.0,44,0.00,,,-99.99,Weather View 32 v60,2013-06-08 08:35:00,
2013-06-08 04:40:00,48.7,27.8,29.90,ENE,76,0.0,0.0,44,0.00,,,-99.99,Weather View 32 v60,2013-06-08 08:40:00,
2013-06-08 04:45:00,48.6,27.6,29.90,ENE,76,0.0,0.0,44,0.00,,,-99.99,Weather View 32 v60,2013-06-08 08:45:00,
2013-06-08 04:50:00,48.6,27.6,29.90,ENE,76,0.0,0.0,44,0.00,,,-99.99,Weather View 32 v60,2013-06-08 08:50:00,
2013-06-08 04:55:00,48.4,28.0,29.90,ENE,76,0.0,0.0,45,0.00,,,-99.99,Weather View 32 v60,2013-06-08 08:55:00,
2013-06-08 05:00:00,48.4,28.0,29.90,ENE,76,0.0,0.0,45,0.00,,,-99.99,Weather View 32 v60,2013-06-08 09:00:00,
2013-06-08 05:05:00,48.2,27.3,29.90,ENE,76,0.0,0.0,44,0.00,,,-99.99,Weather View 32 v60,2013-06-08 09:05:00,
2013-06-08 05:15:00,48.2,27.3,29.90,ENE,76,0.0,0.0,44,0.00,,,-99.99,Weather View 32 v60,2013-06-08 09:15:00,
2013-06-08 05:20:00,47.8,27.5,29.90,ENE,76,0.0,0.0,45,0.00,,,-99.99,Weather View 32 v60,2013-06-08 09:20:00,
2013-06-08 05:25:00,47.8,27.5,29.90,ENE,76,0.0,0.0,45,0.00,,,-99.99,Weather View 32 v60,2013-06-08 09:25:00,
2013-06-08 05:30:00,47.7,27.3,29.90,ENE,76,0.0,0.0,45,0.00,,,-99.99,Weather View 32 v60,2013-06-08 09:30:00,
2013-06-08 05:35:00,47.7,27.3,29.93,ENE,76,0.0,0.0,45,0.00,,,-99.99,Weather View 32 v60,2013-06-08 09:35:00,
2013-06-08 05:40:00,47.5,27.2,29.93,ENE,76,0.0,0.0,45,0.00,,,-99.99,Weather View 32 v60,2013-06-08 09:40:00,
2013-06-08 05:45:00,47.5,27.2,29.93,ENE,76,0.0,0.0,45,0.00,,,-99.99,Weather View 32 v60,2013-06-08 09:45:00,
2013-06-08 05:50:00,47.3,27.5,29.93,ENE,76,0.0,0.0,46,0.00,,,-99.99,Weather View 32 v60,2013-06-08 09:50:00,
2013-06-08 05:55:00,47.3,27.5,29.93,ENE,76,0.0,0.0,46,0.00,,,-99.99,Weather View 32 v60,2013-06-08 09:55:00,
2013-06-08 06:00:00,47.3,28.1,29.93,ENE,76,0.0,0.0,47,0.00,,,-99.99,Weather View 32 v60,2013-06-08 10:00:00,
2013-06-08 06:05:00,47.1,27.9,29.93,ENE,76,0.0,0.0,47,0.00,,,-99.99,Weather View 32 v60,2013-06-08 10:05:00,
2013-06-08 06:10:00,47.1,28.4,29.93,ENE,76,0.0,0.0,48,0.00,,,-99.99,Weather View 32 v60,2013-06-08 10:10:00,
2013-06-08 06:15:00,46.9,28.2,29.93,ENE,76,0.0,0.0,48,0.00,,,-99.99,Weather View 32 v60,2013-06-08 10:15:00,
2013-06-08 06:20:00,46.9,28.2,29.93,ENE,76,0.0,0.0,48,0.00,,,-99.99,Weather View 32 v60,2013-06-08 10:20:00,
2013-06-08 06:25:00,46.9,27.7,29.93,ENE,76,0.0,0.0,47,0.00,,,-99.99,Weather View 32 v60,2013-06-08 10:25:00,
2013-06-08 06:30:00,46.9,28.2,29.93,ENE,76,0.0,0.0,48,0.00,,,-99.99,Weather View 32 v60,2013-06-08 10:30:00,
2013-06-08 06:35:00,46.9,28.7,29.93,ENE,76,0.0,0.0,49,0.00,,,-99.99,Weather View 32 v60,2013-06-08 10:35:00,
2013-06-08 06:40:00,46.9,28.7,29.93,ENE,76,0.0,0.0,49,0.00,,,-99.99,Weather View 32 v60,2013-06-08 10:40:00,
2013-06-08 06:45:00,46.9,29.2,29.93,ENE,76,0.0,0.0,50,0.00,,,-99.99,Weather View 32 v60,2013-06-08 10:45:00,
2013-06-08 06:50:00,46.9,29.2,29.93,ENE,76,0.0,0.0,50,0.00,,,-99.99,Weather View 32 v60,2013-06-08 10:50:00,
2013-06-08 06:55:00,47.1,29.4,29.93,ENE,76,0.0,0.0,50,0.00,,,-99.99,Weather View 32 v60,2013-06-08 10:55:00,
2013-06-08 07:00:00,47.1,29.9,29.93,ENE,76,0.0,0.0,51,0.00,,,-99.99,Weather View 32 v60,2013-06-08 11:00:00,
2013-06-08 07:05:00,47.3,30.1,29.96,ENE,76,0.0,0.0,51,0.00,,,-99.99,Weather View 32 v60,2013-06-08 11:05:00,
2013-06-08 07:10:00,47.5,30.7,29.96,ENE,76,0.0,0.0,52,0.00,,,-99.99,Weather View 32 v60,2013-06-08 11:10:00,
2013-06-08 07:15:00,47.7,30.9,29.96,ENE,76,0.0,0.0,52,0.00,,,-99.99,Weather View 32 v60,2013-06-08 11:15:00,
2013-06-08 07:20:00,47.8,31.0,29.96,ENE,76,0.0,0.0,52,0.00,,,-99.99,Weather View 32 v60,2013-06-08 11:20:00,
2013-06-08 07:25:00,48.0,31.7,29.96,ENE,76,0.0,0.0,53,0.00,,,-99.99,Weather View 32 v60,2013-06-08 11:25:00,
2013-06-08 07:30:00,48.4,32.0,29.96,ENE,76,0.0,0.0,53,0.00,,,-99.99,Weather View 32 v60,2013-06-08 11:30:00,
2013-06-08 07:35:00,48.7,32.8,29.96,ENE,76,0.0,0.0,54,0.00,,,-99.99,Weather View 32 v60,2013-06-08 11:35:00,
2013-06-08 07:40:00,49.3,33.8,29.96,ENE,76,0.0,0.0,55,0.00,,,-99.99,Weather View 32 v60,2013-06-08 11:40:00,
2013-06-08 07:45:00,49.8,34.7,29.96,ENE,76,0.0,0.0,56,0.00,,,-99.99,Weather View 32 v60,2013-06-08 11:45:00,
2013-06-08 07:50:00,50.2,35.1,29.96,ENE,76,0.0,0.0,56,0.00,,,-99.99,Weather View 32 v60,2013-06-08 11:50:00,
2013-06-08 07:55:00,50.7,35.6,29.96,ENE,76,0.0,0.0,56,0.00,,,-99.99,Weather View 32 v60,2013-06-08 11:55:00,
2013-06-08 08:00:00,51.3,36.5,29.96,ENE,76,0.0,0.0,57,0.00,,,-99.99,Weather View 32 v60,2013-06-08 12:00:00,
2013-06-08 08:05:00,51.8,37.0,29.96,ENE,75,0.0,0.0,57,0.00,,,-99.99,Weather View 32 v60,2013-06-08 12:05:00,
2013-06-08 08:10:00,52.3,38.0,29.96,ENE,75,0.0,0.0,58,0.00,,,-99.99,Weather View 32 v60,2013-06-08 12:10:00,
2013-06-08 08:15:00,52.9,38.5,29.96,ENE,75,0.0,0.0,58,0.00,,,-99.99,Weather View 32 v60,2013-06-08 12:15:00,
2013-06-08 08:20:00,53.2,38.8,29.96,ENE,75,0.0,0.0,58,0.00,,,-99.99,Weather View 32 v60,2013-06-08 12:20:00,
2013-06-08 08:25:00,53.8,39.3,29.96,ENE,75,0.0,0.0,58,0.00,,,-99.99,Weather View 32 v60,2013-06-08 12:25:00,
2013-06-08 08:30:00,54.3,39.8,29.96,ENE,75,0.0,0.0,58,0.00,,,-99.99,Weather View 32 v60,2013-06-08 12:30:00,
2013-06-08 08:38:00,54.7,40.2,29.96,ENE,75,0.0,0.0,58,0.00,,,-99.99,Weather View 32 v60,2013-06-08 12:38:00,
2013-06-08 08:45:00,55.8,40.3,29.96,ENE,75,0.0,0.0,56,0.00,,,-99.99,Weather View 32 v60,2013-06-08 12:45:00,
2013-06-08 08:50:00,56.3,40.3,29.96,ENE,75,0.0,0.0,55,0.00,,,-99.99,Weather View 32 v60,2013-06-08 12:50:00,
2013-06-08 08:55:00,56.7,39.7,29.96,ENE,75,0.0,0.0,53,0.00,,,-99.99,Weather View 32 v60,2013-06-08 12:55:00,
2013-06-08 09:00:00,57.0,39.5,29.96,East,81,0.0,0.0,52,0.00,,,-99.99,Weather View 32 v60,2013-06-08 13:00:00,
2013-06-08 09:05:00,57.4,38.9,29.96,East,87,0.0,0.0,50,0.00,,,-99.99,Weather View 32 v60,2013-06-08 13:05:00,
2013-06-08 09:15:00,58.1,38.5,29.96,SSW,200,0.0,3.0,48,0.00,,,-99.99,Weather View 32 v60,2013-06-08 13:15:00,
2013-06-08 09:20:00,58.3,38.6,29.96,SSW,201,0.0,3.0,48,0.00,,,-99.99,Weather View 32 v60,2013-06-08 13:20:00,
2013-06-08 09:25:00,58.5,38.3,29.96,South,170,0.0,3.0,47,0.00,,,-99.99,Weather View 32 v60,2013-06-08 13:25:00,
2013-06-08 09:35:00,59.2,37.8,29.96,ENE,77,0.0,3.0,45,0.00,,,-99.99,Weather View 32 v60,2013-06-08 13:35:00,
2013-06-08 09:40:00,59.4,38.0,29.96,NNE,28,0.0,3.0,45,0.00,,,-99.99,Weather View 32 v60,2013-06-08 13:40:00,
2013-06-08 09:45:00,59.7,37.7,29.96,West,279,4.0,5.0,44,0.00,,,-99.99,Weather View 32 v60,2013-06-08 13:45:00,
2013-06-08 09:50:00,59.9,36.7,29.96,WNW,302,0.0,5.0,42,0.00,,,-99.99,Weather View 32 v60,2013-06-08 13:50:00,
2013-06-08 10:00:00,60.4,36.6,29.96,NNW,334,0.0,5.0,41,0.00,,,-99.99,Weather View 32 v60,2013-06-08 14:00:00,
2013-06-08 10:05:00,60.6,36.7,29.96,WNW,296,0.0,5.0,41,0.00,,,-99.99,Weather View 32 v60,2013-06-08 14:05:00,
2013-06-08 10:10:00,60.8,36.9,29.96,North,0,0.0,5.0,41,0.00,,,-99.99,Weather View 32 v60,2013-06-08 14:10:00,
2013-06-08 10:20:00,61.3,36.8,29.99,SW,222,0.0,5.0,40,0.00,,,-99.99,Weather View 32 v60,2013-06-08 14:20:00,
2013-06-08 10:25:00,61.5,36.3,29.99,South,182,0.0,5.0,39,0.00,,,-99.99,Weather View 32 v60,2013-06-08 14:25:00,
2013-06-08 10:30:00,61.7,36.4,29.99,ENE,69,0.0,5.0,39,0.00,,,-99.99,Weather View 32 v60,2013-06-08 14:30:00,
2013-06-08 10:39:00,61.9,36.6,29.96,ENE,57,4.0,5.0,39,0.00,,,-99.99,Weather View 32 v60,2013-06-08 14:39:00,
2013-06-08 10:45:00,62.4,36.4,29.96,ESE,114,0.0,5.0,38,0.00,,,-99.99,Weather View 32 v60,2013-06-08 14:45:00,
2013-06-08 10:50:00,62.6,36.6,29.96,ESE,114,0.0,5.0,38,0.00,,,-99.99,Weather View 32 v60,2013-06-08 14:50:00,
2013-06-08 11:00:00,63.0,36.2,29.96,NNW,340,0.0,5.0,37,0.00,,,-99.99,Weather View 32 v60,2013-06-08 15:00:00,
2013-06-08 11:05:00,63.0,36.2,29.96,North,0,0.0,5.0,37,0.00,,,-99.99,Weather View 32 v60,2013-06-08 15:05:00,
2013-06-08 11:10:00,63.1,36.4,29.96,NW,309,4.0,5.0,37,0.00,,,-99.99,Weather View 32 v60,2013-06-08 15:10:00,
2013-06-08 11:20:00,63.5,36.7,29.96,NNW,348,0.0,5.0,37,0.00,,,-99.99,Weather View 32 v60,2013-06-08 15:20:00,
2013-06-08 11:25:00,63.5,36.0,29.96,NE,37,3.0,5.0,36,0.00,,,-99.99,Weather View 32 v60,2013-06-08 15:25:00,
2013-06-08 11:30:00,63.7,36.2,29.96,North,4,0.0,5.0,36,0.00,,,-99.99,Weather View 32 v60,2013-06-08 15:30:00,
2013-06-08 11:39:00,63.9,36.3,29.96,West,264,0.0,5.0,36,0.00,,,-99.99,Weather View 32 v60,2013-06-08 15:39:00,
2013-06-08 11:45:00,64.2,36.6,29.96,ESE,107,0.0,5.0,36,0.00,,,-99.99,Weather View 32 v60,2013-06-08 15:45:00,
2013-06-08 11:50:00,64.4,36.1,29.99,North,10,3.0,5.0,35,0.00,,,-99.99,Weather View 32 v60,2013-06-08 15:50:00,
2013-06-08 11:55:00,64.8,36.4,29.99,East,101,3.0,5.0,35,0.00,,,-99.99,Weather View 32 v60,2013-06-08 15:55:00,
2013-06-08 12:05:00,65.1,36.7,29.99,WSW,241,3.0,5.0,35,0.00,,,-99.99,Weather View 32 v60,2013-06-08 16:05:00,
2013-06-08 12:10:00,65.3,36.9,29.99,West,262,3.0,5.0,35,0.00,,,-99.99,Weather View 32 v60,2013-06-08 16:10:00,
2013-06-08 12:15:00,65.5,37.0,29.99,SE,136,3.0,5.0,35,0.00,,,-99.99,Weather View 32 v60,2013-06-08 16:15:00,
2013-06-08 12:25:00,65.7,36.5,29.99,WSW,254,4.0,5.0,34,0.00,,,-99.99,Weather View 32 v60,2013-06-08 16:25:00,
2013-06-08 12:30:00,65.8,36.6,29.99,SSW,195,0.0,5.0,34,0.00,,,-99.99,Weather View 32 v60,2013-06-08 16:30:00,
2013-06-08 12:35:00,65.8,36.6,29.99,SE,127,4.0,5.0,34,0.00,,,-99.99,Weather View 32 v60,2013-06-08 16:35:00,
2013-06-08 12:40:00,66.0,36.8,29.99,SE,134,4.0,5.0,34,0.00,,,-99.99,Weather View 32 v60,2013-06-08 16:40:00,
2013-06-08 12:50:00,66.2,36.2,29.99,SSE,160,0.0,5.0,33,0.00,,,-99.99,Weather View 32 v60,2013-06-08 16:50:00,
2013-06-08 12:55:00,66.2,36.2,29.99,SSE,149,0.0,5.0,33,0.00,,,-99.99,Weather View 32 v60,2013-06-08 16:55:00,
2013-06-08 13:00:00,66.2,36.2,29.99,SSW,199,0.0,5.0,33,0.00,,,-99.99,Weather View 32 v60,2013-06-08 17:00:00,
2013-06-08 13:10:00,66.4,36.3,29.96,South,175,0.0,5.0,33,0.00,,,-99.99,Weather View 32 v60,2013-06-08 17:10:00,
2013-06-08 13:15:00,66.4,36.3,29.96,SE,126,4.0,5.0,33,0.00,,,-99.99,Weather View 32 v60,2013-06-08 17:15:00,
2013-06-08 13:25:00,66.9,35.2,29.96,West,262,4.0,6.0,31,0.00,,,-99.99,Weather View 32 v60,2013-06-08 17:25:00,
2013-06-08 13:30:00,67.3,36.3,29.96,East,99,4.0,6.0,32,0.00,,,-99.99,Weather View 32 v60,2013-06-08 17:30:00,
2013-06-08 13:35:00,67.5,34.9,29.96,East,94,3.0,6.0,30,0.00,,,-99.99,Weather View 32 v60,2013-06-08 17:35:00,
2013-06-08 13:40:00,67.6,35.0,29.96,SSE,159,0.0,6.0,30,0.00,,,-99.99,Weather View 32 v60,2013-06-08 17:40:00,
2013-06-08 13:50:00,67.6,34.2,29.96,ENE,75,3.0,6.0,29,0.00,,,-99.99,Weather View 32 v60,2013-06-08 17:50:00,
2013-06-08 13:55:00,67.5,34.9,29.96,SW,216,5.0,6.0,30,0.00,,,-99.99,Weather View 32 v60,2013-06-08 17:55:00,
2013-06-08 14:05:00,67.5,34.0,29.96,WNW,295,3.0,8.0,29,0.00,,,-99.99,Weather View 32 v60,2013-06-08 18:05:00,
2013-06-08 14:10:00,67.5,34.0,29.96,WNW,295,5.0,8.0,29,0.00,,,-99.99,Weather View 32 v60,2013-06-08 18:10:00,
2013-06-08 14:15:00,67.5,34.0,29.96,WNW,287,2.0,8.0,29,0.00,,,-99.99,Weather View 32 v60,2013-06-08 18:15:00,
2013-06-08 14:25:00,67.5,34.0,29.96,WSW,248,0.0,8.0,29,0.00,,,-99.99,Weather View 32 v60,2013-06-08 18:25:00,
2013-06-08 14:30:00,67.6,34.2,29.96,West,271,4.0,8.0,29,0.00,,,-99.99,Weather View 32 v60,2013-06-08 18:30:00,
2013-06-08 14:35:00,67.6,34.2,29.96,NNW,331,0.0,8.0,29,0.00,,,-99.99,Weather View 32 v60,2013-06-08 18:35:00,
2013-06-08 14:40:00,67.8,34.3,29.96,South,183,3.0,8.0,29,0.00,,,-99.99,Weather View 32 v60,2013-06-08 18:40:00,
2013-06-08 14:45:00,67.8,34.3,29.96,West,270,3.0,8.0,29,0.00,,,-99.99,Weather View 32 v60,2013-06-08 18:45:00,
2013-06-08 14:50:00,68.2,33.8,29.96,SSE,159,3.0,8.0,28,0.00,,,-99.99,Weather View 32 v60,2013-06-08 18:50:00,
2013-06-08 14:55:00,68.5,33.2,29.96,SSW,200,0.0,8.0,27,0.00,,,-99.99,Weather View 32 v60,2013-06-08 18:55:00,
2013-06-08 15:00:00,68.7,33.3,29.96,West,259,0.0,6.0,27,0.00,,,-99.99,Weather View 32 v60,2013-06-08 19:00:00,
2013-06-08 15:10:00,68.9,33.5,29.96,West,262,5.0,6.0,27,0.00,,,-99.99,Weather View 32 v60,2013-06-08 19:10:00,
2013-06-08 15:15:00,68.9,33.5,29.96,West,267,3.0,6.0,27,0.00,,,-99.99,Weather View 32 v60,2013-06-08 19:15:00,
2013-06-08 15:20:00,68.9,33.5,29.96,South,180,0.0,6.0,27,0.00,,,-99.99,Weather View 32 v60,2013-06-08 19:20:00,
2013-06-08 15:25:00,68.9,33.5,29.96,WSW,247,6.0,8.0,27,0.00,,,-99.99,Weather View 32 v60,2013-06-08 19:25:00,
2013-06-08 15:30:00,68.9,32.5,29.96,WNW,290,5.0,8.0,26,0.00,,,-99.99,Weather View 32 v60,2013-06-08 19:30:00,
2013-06-08 15:40:00,68.9,32.5,29.96,SW,232,5.0,8.0,26,0.00,,,-99.99,Weather View 32 v60,2013-06-08 19:40:00,
2013-06-08 15:45:00,69.1,33.6,29.96,WSW,239,0.0,8.0,27,0.00,,,-99.99,Weather View 32 v60,2013-06-08 19:45:00,
2013-06-08 15:50:00,69.1,33.6,29.96,West,266,3.0,8.0,27,0.00,,,-99.99,Weather View 32 v60,2013-06-08 19:50:00,
2013-06-08 15:55:00,69.3,32.8,29.96,SW,222,0.0,8.0,26,0.00,,,-99.99,Weather View 32 v60,2013-06-08 19:55:00,
2013-06-08 16:00:00,69.3,32.8,29.96,South,188,0.0,8.0,26,0.00,,,-99.99,Weather View 32 v60,2013-06-08 20:00:00,
2013-06-08 16:05:00,69.3,32.8,29.96,SW,231,3.0,8.0,26,0.00,,,-99.99,Weather View 32 v60,2013-06-08 20:05:00,
2013-06-08 16:10:00,69.4,33.0,29.96,West,260,5.0,8.0,26,0.00,,,-99.99,Weather View 32 v60,2013-06-08 20:10:00,
2013-06-08 16:15:00,69.4,33.0,29.96,SW,220,3.0,8.0,26,0.00,,,-99.99,Weather View 32 v60,2013-06-08 20:15:00,
2013-06-08 16:20:00,69.6,33.1,29.96,ENE,64,0.0,8.0,26,0.00,,,-99.99,Weather View 32 v60,2013-06-08 20:20:00,
2013-06-08 16:30:00,69.6,33.1,29.96,SW,224,0.0,8.0,26,0.00,,,-99.99,Weather View 32 v60,2013-06-08 20:30:00,
2013-06-08 16:35:00,69.6,32.2,29.96,WNW,287,3.0,8.0,25,0.00,,,-99.99,Weather View 32 v60,2013-06-08 20:35:00,
2013-06-08 16:40:00,69.6,33.1,29.96,WNW,294,0.0,8.0,26,0.00,,,-99.99,Weather View 32 v60,2013-06-08 20:40:00,
2013-06-08 16:45:00,69.6,33.1,29.96,WNW,284,0.0,6.0,26,0.00,,,-99.99,Weather View 32 v60,2013-06-08 20:45:00,
2013-06-08 16:50:00,69.6,33.1,29.96,West,259,3.0,6.0,26,0.00,,,-99.99,Weather View 32 v60,2013-06-08 20:50:00,
2013-06-08 16:55:00,69.6,32.2,29.96,SW,235,3.0,6.0,25,0.00,,,-99.99,Weather View 32 v60,2013-06-08 20:55:00,
2013-06-08 17:00:00,69.6,32.2,29.96,West,263,4.0,6.0,25,0.00,,,-99.99,Weather View 32 v60,2013-06-08 21:00:00,
2013-06-08 17:05:00,69.6,32.2,29.96,WNW,286,3.0,6.0,25,0.00,,,-99.99,Weather View 32 v60,2013-06-08 21:05:00,
2013-06-08 17:10:00,69.4,32.0,29.96,WSW,251,0.0,6.0,25,0.00,,,-99.99,Weather View 32 v60,2013-06-08 21:10:00,
2013-06-08 17:15:00,69.4,32.0,29.96,West,267,0.0,6.0,25,0.00,,,-99.99,Weather View 32 v60,2013-06-08 21:15:00,
2013-06-08 17:25:00,69.4,33.0,29.96,WNW,282,0.0,6.0,26,0.00,,,-99.99,Weather View 32 v60,2013-06-08 21:25:00,
2013-06-08 17:30:00,69.4,33.0,29.96,WNW,282,0.0,6.0,26,0.00,,,-99.99,Weather View 32 v60,2013-06-08 21:30:00,
2013-06-08 17:35:00,69.3,32.8,29.96,West,279,0.0,6.0,26,0.00,,,-99.99,Weather View 32 v60,2013-06-08 21:35:00,
2013-06-08 17:40:00,69.3,32.8,29.96,West,279,0.0,6.0,26,0.00,,,-99.99,Weather View 32 v60,2013-06-08 21:40:00,
2013-06-08 17:45:00,69.3,32.8,29.96,West,279,0.0,6.0,26,0.00,,,-99.99,Weather View 32 v60,2013-06-08 21:45:00,
2013-06-08 17:50:00,69.1,32.7,29.96,West,279,0.0,6.0,26,0.00,,,-99.99,Weather View 32 v60,2013-06-08 21:50:00,
2013-06-08 17:55:00,69.1,32.7,29.96,West,279,0.0,6.0,26,0.00,,,-99.99,Weather View 32 v60,2013-06-08 21:55:00,
2013-06-08 18:00:00,69.1,32.7,29.96,West,279,0.0,6.0,26,0.00,,,-99.99,Weather View 32 v60,2013-06-08 22:00:00,
2013-06-08 18:10:00,68.9,33.5,29.99,West,279,0.0,6.0,27,0.00,,,-99.99,Weather View 32 v60,2013-06-08 22:10:00,
2013-06-08 18:15:00,68.7,33.3,29.99,West,279,0.0,6.0,27,0.00,,,-99.99,Weather View 32 v60,2013-06-08 22:15:00,
2013-06-08 18:20:00,68.7,34.2,29.99,West,279,0.0,6.0,28,0.00,,,-99.99,Weather View 32 v60,2013-06-08 22:20:00,
2013-06-08 18:25:00,68.5,34.1,29.99,West,279,0.0,6.0,28,0.00,,,-99.99,Weather View 32 v60,2013-06-08 22:25:00,
2013-06-08 18:30:00,68.5,35.8,29.99,West,279,0.0,6.0,30,0.00,,,-99.99,Weather View 32 v60,2013-06-08 22:30:00,
2013-06-08 18:35:00,68.5,35.8,29.99,West,279,0.0,0.0,30,0.00,,,-99.99,Weather View 32 v60,2013-06-08 22:35:00,
2013-06-08 18:40:00,68.4,35.6,29.99,West,281,0.0,0.0,30,0.00,,,-99.99,Weather View 32 v60,2013-06-08 22:40:00,
2013-06-08 18:45:00,68.2,37.1,29.99,West,281,0.0,0.0,32,0.00,,,-99.99,Weather View 32 v60,2013-06-08 22:45:00,
2013-06-08 18:50:00,68.2,37.1,29.99,West,281,0.0,0.0,32,0.00,,,-99.99,Weather View 32 v60,2013-06-08 22:50:00,
2013-06-08 19:00:00,68.0,37.0,29.99,WSW,252,0.0,0.0,32,0.00,,,-99.99,Weather View 32 v60,2013-06-08 23:00:00,
2013-06-08 19:05:00,68.0,37.0,29.99,SW,230,0.0,0.0,32,0.00,,,-99.99,Weather View 32 v60,2013-06-08 23:05:00,
2013-06-08 19:10:00,67.8,36.8,29.99,SSW,200,0.0,4.0,32,0.00,,,-99.99,Weather View 32 v60,2013-06-08 23:10:00,
2013-06-08 19:15:00,67.8,36.0,29.99,SSW,200,0.0,4.0,31,0.00,,,-99.99,Weather View 32 v60,2013-06-08 23:15:00,
2013-06-08 19:20:00,67.6,35.8,29.99,SSW,200,0.0,4.0,31,0.00,,,-99.99,Weather View 32 v60,2013-06-08 23:20:00,
2013-06-08 19:25:00,67.6,36.7,29.99,SSW,200,0.0,4.0,32,0.00,,,-99.99,Weather View 32 v60,2013-06-08 23:25:00,
2013-06-08 19:30:00,67.6,37.4,29.99,NNE,23,3.0,4.0,33,0.00,,,-99.99,Weather View 32 v60,2013-06-08 23:30:00,
2013-06-08 19:35:00,67.5,35.7,29.99,NNE,13,0.0,5.0,31,0.00,,,-99.99,Weather View 32 v60,2013-06-08 23:35:00,
2013-06-08 19:44:00,67.3,35.5,29.99,ENE,72,6.0,6.0,31,0.00,,,-99.99,Weather View 32 v60,2013-06-08 23:44:00,
2013-06-08 19:50:00,66.9,34.4,30.02,NNE,13,4.0,6.0,30,0.00,,,-99.99,Weather View 32 v60,2013-06-08 23:50:00,
2013-06-08 19:55:00,66.7,33.4,30.02,NNE,32,3.0,6.0,29,0.00,,,-99.99,Weather View 32 v60,2013-06-08 23:55:00,
2013-06-08 20:00:00,66.4,33.1,30.02,ENE,58,3.0,6.0,29,0.00,,,-99.99,Weather View 32 v60,2013-06-09 00:00:00,
2013-06-08 20:05:00,66.2,32.9,30.02,NE,36,0.0,8.0,29,0.00,,,-99.99,Weather View 32 v60,2013-06-09 00:05:00,
2013-06-08 20:10:00,66.0,33.6,30.02,ENE,63,2.0,8.0,30,0.00,,,-99.99,Weather View 32 v60,2013-06-09 00:10:00,
2013-06-08 20:15:00,65.8,33.5,30.02,East,84,3.0,8.0,30,0.00,,,-99.99,Weather View 32 v60,2013-06-09 00:15:00,
2013-06-08 20:25:00,65.5,33.2,30.02,ENE,77,0.0,8.0,30,0.00,,,-99.99,Weather View 32 v60,2013-06-09 00:25:00,
2013-06-08 20:30:00,65.3,33.0,30.02,East,101,3.0,8.0,30,0.00,,,-99.99,Weather View 32 v60,2013-06-09 00:30:00,
2013-06-08 20:35:00,65.1,32.8,30.02,East,95,0.0,8.0,30,0.00,,,-99.99,Weather View 32 v60,2013-06-09 00:35:00,
2013-06-08 20:40:00,64.9,32.7,30.02,ENE,72,0.0,8.0,30,0.00,,,-99.99,Weather View 32 v60,2013-06-09 00:40:00,
2013-06-08 20:45:00,64.8,33.3,30.02,NE,46,0.0,8.0,31,0.00,,,-99.99,Weather View 32 v60,2013-06-09 00:45:00,
2013-06-08 20:50:00,64.8,33.3,30.02,East,98,0.0,8.0,31,0.00,,,-99.99,Weather View 32 v60,2013-06-09 00:50:00,
2013-06-08 20:55:00,64.4,33.0,30.02,East,84,2.0,8.0,31,0.00,,,-99.99,Weather View 32 v60,2013-06-09 00:55:00,
2013-06-08 21:00:00,64.2,33.7,30.02,ESE,108,0.0,8.0,32,0.00,,,-99.99,Weather View 32 v60,2013-06-09 01:00:00,
2013-06-08 21:10:00,63.9,34.1,30.02,East,93,0.0,6.0,33,0.00,,,-99.99,Weather View 32 v60,2013-06-09 01:10:00,
2013-06-08 21:15:00,63.7,34.0,30.02,East,100,3.0,6.0,33,0.00,,,-99.99,Weather View 32 v60,2013-06-09 01:15:00,
2013-06-08 21:20:00,63.5,33.8,30.02,NE,54,4.0,6.0,33,0.00,,,-99.99,Weather View 32 v60,2013-06-09 01:20:00,
2013-06-08 21:25:00,63.5,33.8,30.02,NE,41,5.0,6.0,33,0.00,,,-99.99,Weather View 32 v60,2013-06-09 01:25:00,
2013-06-08 21:30:00,63.1,33.5,30.02,NE,38,0.0,6.0,33,0.00,,,-99.99,Weather View 32 v60,2013-06-09 01:30:00,
2013-06-08 21:35:00,63.0,34.1,30.02,East,85,3.0,6.0,34,0.00,,,-99.99,Weather View 32 v60,2013-06-09 01:35:00,
2013-06-08 21:40:00,62.8,33.9,30.02,ENE,77,0.0,6.0,34,0.00,,,-99.99,Weather View 32 v60,2013-06-09 01:40:00,
2013-06-08 21:45:00,62.6,33.8,30.02,ENE,78,0.0,6.0,34,0.00,,,-99.99,Weather View 32 v60,2013-06-09 01:45:00,
2013-06-08 21:55:00,62.2,33.5,30.02,East,81,0.0,6.0,34,0.00,,,-99.99,Weather View 32 v60,2013-06-09 01:55:00,
2013-06-08 22:00:00,62.1,34.0,30.02,East,81,0.0,6.0,35,0.00,,,-99.99,Weather View 32 v60,2013-06-09 02:00:00,
2013-06-08 22:05:00,61.7,33.7,30.02,ENE,69,0.0,5.0,35,0.00,,,-99.99,Weather View 32 v60,2013-06-09 02:05:00,
2013-06-08 22:15:00,61.3,33.4,30.02,East,83,0.0,5.0,35,0.00,,,-99.99,Weather View 32 v60,2013-06-09 02:15:00,
2013-06-08 22:20:00,61.0,33.1,30.05,East,84,3.0,5.0,35,0.00,,,-99.99,Weather View 32 v60,2013-06-09 02:20:00,
2013-06-08 22:25:00,60.8,33.6,30.05,ENE,78,0.0,5.0,36,0.00,,,-99.99,Weather View 32 v60,2013-06-09 02:25:00,
2013-06-08 22:30:00,60.6,34.1,30.05,ENE,78,0.0,4.0,37,0.00,,,-99.99,Weather View 32 v60,2013-06-09 02:30:00,
2013-06-08 22:35:00,60.3,33.8,30.05,ENE,78,0.0,4.0,37,0.00,,,-99.99,Weather View 32 v60,2013-06-09 02:35:00,
2013-06-08 22:45:00,59.7,33.3,30.05,ENE,78,0.0,3.0,37,0.00,,,-99.99,Weather View 32 v60,2013-06-09 02:45:00,
2013-06-08 22:50:00,59.5,33.2,30.05,ENE,78,0.0,3.0,37,0.00,,,-99.99,Weather View 32 v60,2013-06-09 02:50:00,
2013-06-08 22:55:00,59.4,33.0,30.05,ENE,78,0.0,3.0,37,0.00,,,-99.99,Weather View 32 v60,2013-06-09 02:55:00,
2013-06-08 23:00:00,59.0,32.7,30.05,ENE,78,0.0,3.0,37,0.00,,,-99.99,Weather View 32 v60,2013-06-09 03:00:00,
2013-06-08 23:05:00,58.8,32.5,30.05,ENE,78,0.0,3.0,37,0.00,,,-99.99,Weather View 32 v60,2013-06-09 03:05:00,
2013-06-08 23:10:00,58.5,32.2,30.05,ENE,78,0.0,3.0,37,0.00,,,-99.99,Weather View 32 v60,2013-06-09 03:10:00,
2013-06-08 23:15:00,58.3,32.1,30.05,ENE,78,0.0,3.0,37,0.00,,,-99.99,Weather View 32 v60,2013-06-09 03:15:00,
2013-06-08 23:20:00,58.1,31.9,30.05,ENE,78,0.0,3.0,37,0.00,,,-99.99,Weather View 32 v60,2013-06-09 03:20:00,
2013-06-08 23:30:00,57.6,32.1,30.05,ENE,78,0.0,0.0,38,0.00,,,-99.99,Weather View 32 v60,2013-06-09 03:30:00,
2013-06-08 23:35:00,57.2,31.8,30.05,ENE,78,0.0,0.0,38,0.00,,,-99.99,Weather View 32 v60,2013-06-09 03:35:00,
2013-06-08 23:40:00,57.0,31.6,30.05,ENE,78,0.0,0.0,38,0.00,,,-99.99,Weather View 32 v60,2013-06-09 03:40:00,
2013-06-08 23:45:00,56.8,31.4,30.05,ENE,78,0.0,0.0,38,0.00,,,-99.99,Weather View 32 v60,2013-06-09 03:45:00,
2013-06-08 23:50:00,56.7,31.3,30.05,ENE,78,0.0,0.0,38,0.00,,,-99.99,Weather View 32 v60,2013-06-09 03:50:00,
2013-06-08 23:55:00,56.3,31.6,30.05,ENE,78,0.0,0.0,39,0.00,,,-99.99,Weather View 32 v60,2013-06-09 03:55:00,